SCP
1 1 1 1 2 3 3 3 3 3 2 2 1 1 1 1 1 1 1 1 1 1 1 2 2 2 1 1 1 2 2 2 2 2 1 1 1 1 1 1 1 1 1
1 1 1 1 2 3 3 3 3 3 2 2 1 1 1 1 1 1 1 1 1 1 1 2 2 2 1 1 2 2 2 2 2 2 1 1 1 1 1 1 1 1 1
1 1 1 1 2 3 4 4 3 3 2 2 1 1 1 1 1 1 1 1 1 1 2 2 1 1 2 2 2 2 2 2 3 2 1 1 1 1 1 1 1 1 0
1 1 1 1 2 3 4 4 3 2 2 2 2 2 2 2 2 1 1 1 1 1 1 1 1 1 2 2 2 2 2 2 3 2 1 1 1 1 1 1 1 1 1
1 1 1 1 2 3 4 4 3 2 2 1 2 2 2 2 2 1 1 1 1 1 1 1 1 1 2 2 2 2 2 3 3 2 1 1 1 1 1 1 1 1 1
1 1 1 1 2 3 3 3 3 2 1 1 1 2 3 3 2 2 1 1 1 1 1 1 1 2 2 3 2 2 3 3 2 1 1 1 1 1 1 1 1 1 1
1 1 1 1 2 2 3 3 2 2 1 1 1 2 3 3 2 2 1 1 1 1 1 1 2 2 3 3 3 3 4 3 2 1 1 1 1 1 1 1 1 1 1
1 1 1 1 2 2 2 2 2 1 1 1 1 2 3 3 2 1 1 1 1 1 1 2 2 3 4 4 4 4 4 3 1 1 1 1 1 1 1 1 1 1 1
1 1 1 1 2 2 2 2 2 1 1 1 1 2 3 2 2 1 1 1 1 1 1 2 3 4 4 4 4 4 4 2 1 1 1 1 2 1 1 1 1 1 1
2 1 1 1 2 2 2 2 1 1 1 1 2 2 2 2 1 1 1 1 1 1 2 2 3 4 4 4 4 4 3 2 1 1 1 2 2 1 1 1 1 1 1
2 1 1 1 2 2 2 1 1 1 1 1 2 2 1 1 1 1 1 1 1 1 2 2 3 4 4 3 3 3 2 1 1 1 2 2 2 2 1 1 1 1 1
1 1 1 1 1 1 1 1 1 1 1 1 1 1 1 1 1 1 1 1 1 1 2 2 3 3 2 2 2 2 1 1 1 1 2 2 2 2 1 1 1 1 1
1 1 1 1 1 1 1 1 1 0 1 1 1 1 1 0 0 0 1 1 1 1 2 2 2 2 1 1 1 1 0 0 1 1 2 2 2 2 2 1 1 1 1
0 1 1 1 1 1 1 1 0 0 0 1 1 1 1 0 0 0 0 1 1 1 1 1 1 1 1 1 1 1 1 1 1 1 1 1 2 2 2 2 1 1 1
1 1 1 1 1 1 1 0 0 0 0 1 1 1 0 0 0 0 0 0 0 0 0 0 1 1 1 1 1 1 1 1 1 1 1 1 2 2 2 2 1 1 1
1 1 1 1 1 1 0 0 0 0 0 1 1 0 0 0 0 0 0 0 0 0 0 1 1 1 1 1 1 1 1 1 1 2 1 1 2 2 2 2 2 1 1
1 1 1 1 1 0 0 0 0 0 0 0 1 0 0 0 0 1 1 1 1 1 1 1 1 1 1 1 1 1 2 2 2 2 2 2 1 2 2 2 2 1 1
1 1 1 1 1 0 0 0 0 0 0 0 0 1 1 1 1 1 1 1 1 1 1 1 1 1 1 1 1 2 2 2 2 2 2 2 2 1 1 1 1 1 1
1 1 1 1 1 0 0 0 0 0 0 0 0 1 1 1 1 1 1 1 1 1 1 1 1 1 1 1 1 1 1 1 1 1 2 2 2 1 1 1 1 1 1
1 1 1 1 1 0 0 0 0 0 0 0 0 1 1 1 1 1 1 1 1 1 1 1 1 1 1 1 1 1 1 1 1 1 1 1 1 1 1 1 1 1 1
1 1 1 1 1 0 0 0 0 0 0 0 0 0 0 1 1 1 0 0 0 0 0 1 1 1 1 1 1 0 0 0 0 1 1 1 1 1 1 1 1 1 1
1 1 2 1 1 0 0 0 0 0 0 0 0 0 0 0 0 0 0 0 0 0 0 0 0 0 0 0 0 0 0 0 0 0 1 1 1 1 1 1 1 1 1
1 1 2 1 1 0 0 1 1 0 1 1 1 0 0 0 0 0 0 0 0 0 0 0 0 0 0 0 0 1 1 1 1 1 1 1 1 1 1 1 1 1 1
1 1 2 2 1 0 0 1 1 1 1 1 1 0 0 0 0 0 0 0 0 0 0 0 0 0 1 1 1 1 1 1 1 1 1 1 1 1 1 1 1 1 1
1 1 2 2 1 1 0 1 1 1 1 1 1 1 0 0 0 0 0 0 0 0 0 0 0 1 1 1 1 1 2 2 1 1 1 1 1 0 1 1 1 1 1
1 2 2 2 1 1 0 1 1 1 1 1 1 1 0 0 0 0 0 0 0 0 0 0 1 1 1 2 2 2 2 1 1 1 1 1 1 0 0 1 1 1 2
Wind_Speed
1 1 5 7 7 8 9 9 10 10 10 10 10 10 11 11 12 14 15 15 16 17 18 18 18 17 17 17 17 17 17 16 15 14 14 14 14 14 13 13 13 10 14
0 1 6 7 7 8 9 9 10 10 10 10 10 11 12 12 13 14 15 15 16 17 17 18 18 18 17 17 17 17 16 15 14 14 14 13 13 13 13 13 12 8 13
2 1 4 7 7 8 8 9 9 10 10 10 10 12 12 13 14 14 14 15 16 16 17 17 17 17 17 17 17 16 15 14 13 13 12 8 9 12 12 12 13 12 12
3 2 4 8 8 8 8 9 9 9 10 10 10 11 12 13 14 14 15 15 15 16 17 17 17 17 17 16 15 15 14 14 13 12 6 6 6 11 12 12 12 12 11
3 2 4 9 8 8 8 8 8 9 9 10 10 11 12 13 13 14 15 15 15 16 17 17 17 16 16 15 14 14 13 13 12 9 6 5 5 10 11 11 12 11 11
4 3 4 8 8 8 8 8 8 9 9 9 10 11 12 13 13 14 14 15 15 16 16 16 15 15 15 14 13 13 12 12 10 6 6 5 4 9 11 11 11 11 10
4 3 4 8 7 8 8 8 8 9 9 9 10 11 12 12 13 13 13 14 14 15 15 15 14 14 13 12 12 11 11 11 7 6 5 5 5 8 9 9 9 9 10
4 3 3 7 7 7 7 8 8 9 9 9 11 11 11 12 12 12 12 13 13 14 14 13 13 12 12 11 10 10 10 9 7 6 5 4 6 7 8 8 8 8 9
4 3 2 2 4 6 7 7 7 8 9 10 10 11 11 11 11 10 10 11 12 12 12 12 12 11 10 9 9 8 8 8 6 4 5 3 6 7 7 7 8 8 8
3 3 3 2 3 2 3 5 6 7 8 9 10 10 10 10 9 9 9 9 11 11 11 11 10 10 9 8 8 7 7 7 5 4 3 4 7 7 7 7 7 7 7
2 2 2 2 2 2 2 3 4 5 6 7 7 9 7 4 4 5 7 9 9 9 9 9 8 8 8 6 6 6 5 3 4 3 2 5 6 7 7 7 7 7 7
2 1 1 1 1 1 1 2 2 3 3 4 4 4 4 3 3 4 6 7 8 8 7 7 7 6 5 3 3 4 2 3 3 2 2 5 6 7 7 6 6 6 7
2 2 2 2 1 1 1 1 1 2 2 3 3 3 3 3 3 3 2 3 3 4 3 4 4 2 2 2 2 2 2 2 2 2 3 5 5 6 6 6 5 5 6
2 2 2 2 2 1 1 1 1 1 1 1 2 2 3 2 2 2 2 2 2 2 2 2 2 2 2 2 2 2 2 2 1 1 2 5 5 5 6 6 5 5 5
4 3 3 3 2 2 1 1 1 1 1 1 1 1 2 2 2 2 1 1 1 1 2 2 2 2 2 2 2 2 2 2 2 2 1 4 5 5 5 5 5 5 6
5 4 3 3 3 3 2 2 1 1 1 1 1 1 2 2 2 2 1 1 1 1 1 2 2 2 1 2 2 2 2 2 2 2 1 2 4 5 5 6 6 6 6
5 5 4 4 3 3 3 3 2 1 2 1 1 1 2 2 2 2 1 1 1 1 2 2 2 2 2 2 2 1 1 1 2 2 2 2 2 4 5 6 6 6 6
5 5 5 5 4 3 3 2 2 2 2 1 1 1 2 2 3 2 1 1 1 2 2 2 2 2 1 1 1 0 0 1 2 2 2 2 2 2 4 6 6 6 6
5 5 5 4 5 4 3 2 2 2 2 1 1 1 2 3 3 2 2 2 2 2 2 2 2 2 1 1 0 0 0 1 2 2 3 3 3 3 3 4 6 7 8
4 4 5 4 4 4 3 2 1 1 1 1 1 2 3 2 3 3 2 2 2 2 2 2 2 2 1 1 1 1 1 1 1 2 3 2 3 4 4 4 3 4 8
5 5 5 5 4 4 2 2 2 1 1 0 1 2 2 3 3 3 2 2 2 2 2 2 2 2 1 1 1 1 1 1 2 2 2 2 3 4 4 4 3 4 4
6 6 5 5 5 4 3 2 2 2 1 1 1 0 1 3 3 3 3 2 2 2 2 3 2 2 1 1 2 1 2 3 2 1 1 2 3 2 4 5 4 4 4
7 8 7 6 5 4 4 3 2 2 1 1 0 0 1 2 2 2 3 3 3 3 3 3 3 3 2 1 1 2 1 1 2 2 1 1 2 2 3 3 4 4 4
9 7 6 6 5 5 5 4 4 3 2 2 1 1 1 1 1 2 3 3 3 3 3 3 3 3 3 2 1 1 1 2 1 2 2 1 1 2 3 3 3 3 3
8 7 6 6 5 5 5 5 5 3 2 1 1 1 0 0 1 1 2 3 3 3 3 3 3 3 3 3 2 1 1 1 1 1 2 3 2 2 2 2 2 2 3
7 7 7 6 6 5 5 5 5 5 4 3 2 1 1 0 0 1 2 2 3 2 3 3 3 4 3 3 2 2 2 2 2 2 2 2 3 3 2 2 2 3 2
Wind_Direction
338 349 99 95 93 93 93 91 90 89 90 92 96 97 104 109 115 122 124 126 129 131 131 130 128 125 124 125 125 124 125 126 130 131 132 133 131 129 127 123 119 116 118
123 34 105 96 95 96 94 92 91 92 93 94 96 96 101 108 110 116 121 123 125 128 128 128 127 125 125 124 123 124 126 128 131 132 132 130 130 129 128 125 123 124 124
97 90 109 103 97 96 95 94 93 95 96 96 96 97 98 102 107 111 116 122 124 126 126 125 126 125 125 125 125 126 128 130 129 127 123 120 127 132 131 130 128 126 126
115 99 110 109 102 99 97 95 93 95 99 99 98 101 102 104 107 111 114 118 122 123 125 125 125 126 125 126 127 128 130 130 125 121 113 119 128 133 132 131 130 128 128
114 102 116 112 105 102 98 93 93 96 98 100 101 103 105 107 109 112 114 116 118 120 122 125 126 127 127 128 128 130 131 129 127 118 112 111 117 133 134 135 135 135 135
115 108 122 115 107 101 98 95 93 93 98 101 103 105 105 107 109 111 112 114 116 118 121 123 125 127 127 128 128 129 128 126 121 115 114 117 122 137 140 143 143 142 142
112 105 120 116 107 103 100 94 90 93 98 101 108 110 108 106 106 109 110 113 116 120 123 123 125 127 128 128 128 127 127 129 118 117 119 125 135 143 143 145 146 149 146
106 98 108 119 115 108 101 97 91 94 96 99 111 113 111 109 107 107 109 114 116 120 122 123 125 125 125 126 126 127 129 130 125 127 125 129 144 147 149 149 148 148 146
88 82 68 90 106 110 104 96 93 98 97 97 104 110 110 109 108 108 110 115 117 120 122 124 125 126 128 128 130 133 132 130 122 128 137 140 153 156 158 152 149 150 154
83 80 69 59 60 68 90 103 96 94 98 100 101 103 104 105 106 108 108 115 119 122 123 125 128 127 127 128 130 134 135 128 125 130 133 154 160 163 162 159 160 156 161
106 82 87 76 70 72 80 103 92 91 89 89 91 97 91 76 78 94 110 117 120 123 125 126 126 124 123 124 126 126 119 112 127 129 141 162 168 168 168 168 169 167 172
168 153 124 120 101 88 95 74 52 58 57 57 58 68 68 66 70 84 101 114 117 120 121 123 122 119 112 108 119 116 102 118 126 138 161 168 172 176 173 177 178 178 180
178 175 167 165 138 118 79 88 65 53 52 52 56 66 70 64 57 58 61 78 85 100 95 103 97 94 104 113 119 126 132 132 136 154 159 166 176 183 183 188 184 184 185
171 197 184 161 147 148 113 98 93 84 80 78 73 84 89 77 60 65 63 54 53 65 78 82 92 90 92 107 130 138 143 145 150 157 170 176 182 188 190 190 188 191 192
188 200 193 169 167 164 140 157 135 134 138 132 102 101 114 115 104 91 90 79 73 82 92 97 100 101 104 109 130 138 149 159 164 166 178 191 193 198 195 195 198 200 202
197 201 189 181 180 166 164 171 160 154 148 138 139 141 136 134 126 112 100 89 89 103 114 116 122 116 110 113 116 129 150 166 167 175 194 209 207 206 213 212 210 211 213
194 192 184 182 175 171 172 178 163 159 144 148 158 157 151 146 140 135 118 103 101 98 98 95 89 97 107 102 102 124 157 182 191 196 202 209 221 222 221 219 217 218 219
181 179 184 179 167 174 172 168 157 155 153 165 169 170 170 160 153 146 140 143 120 103 101 103 98 98 93 92 97 112 171 219 223 215 210 213 218 232 234 230 228 229 232
178 173 172 171 165 167 155 146 140 143 161 177 177 180 181 176 166 155 156 147 126 113 110 125 108 118 118 96 85 43 271 240 245 229 220 221 220 225 232 245 245 241 241
171 167 167 166 162 149 133 121 104 105 141 174 193 201 190 184 171 155 154 145 131 124 119 118 126 117 131 140 102 33 315 268 245 236 236 232 228 227 227 233 246 255 251
164 166 171 168 164 147 137 144 141 181 196 204 221 212 201 187 174 166 162 153 146 148 151 140 128 119 111 108 88 16 337 292 250 239 234 233 239 238 230 230 231 239 255
178 176 177 179 171 169 164 156 151 151 173 207 236 225 199 182 179 177 167 166 161 150 144 144 134 125 118 116 121 86 352 340 334 277 243 231 242 241 239 236 225 229 240
186 186 189 187 178 175 160 130 109 82 61 61 36 283 244 193 187 180 172 166 168 163 172 174 164 156 164 160 148 147 150 261 312 316 281 259 255 245 247 243 231 227 229
195 187 185 181 178 174 162 156 155 162 179 201 198 216 250 173 175 179 176 173 177 175 180 188 179 171 166 180 175 180 180 169 188 313 319 310 283 258 258 252 239 230 229
189 181 182 174 178 176 173 173 167 172 181 168 145 162 204 146 166 171 170 172 177 180 186 188 178 178 176 178 177 168 148 132 176 206 288 315 317 281 267 255 249 243 236
180 176 175 173 182 180 177 177 177 177 174 166 177 194 221 207 166 176 171 175 183 184 193 197 192 187 188 186 181 175 170 172 192 197 238 277 294 293 285 259 250 250 242